This demonstration page uses our WeatherBlox Daily Observations layout. Learn more.

Left ArrowRight Arrow

47.50024, -111.30081

Hourly Observations for May 29, 2017

Temp ( °F °C ) Dew Point ( °F °C ) Humidity (%) Winds ( mph kmh ) Pressure ( in mb ) Visibility ( mi km ) Precip ( " mm )
12:53 am 00:53 Clear 49 9.4 45 7.2 86 86 WNW 7 11 30.22 1023 10 16 0.00 0.00
1:53 am 01:53 Clear 46 7.8 44 6.7 93 93 SW 6 9 30.22 1023 10 16 0.00 0.00
2:53 am 02:53 Mostly Clear 44 6.7 42 5.6 93 93 SSW 7 11 30.22 1023 10 16 0.00 0.00
3:53 am 03:53 Clear 43 6.1 41 5 93 93 SW 7 11 30.23 1024 10 16 0.00 0.00
4:53 am 04:53 Clear 45 7.2 42 5.6 90 90 SSW 8 13 30.22 1023 10 16 0.00 0.00
5:53 am 05:53 Sunny 44 6.7 41 5 89 89 SW 9 15 30.22 1023 10 16 0.00 0.00
6:53 am 06:53 Sunny 48 8.9 45 7.2 89 89 Calm 30.22 1024 10 16 0.00 0.00
7:53 am 07:53 Sunny 53 11.7 47 8.3 80 80 WSW 5 7 30.22 1024 10 16 0.00 0.00
8:53 am 08:53 Sunny 57 13.9 48 8.9 72 72 S 3 6 30.22 1023 10 16 0.00 0.00
9:53 am 09:53 Sunny 61 16.1 47 8.3 60 60 VRB 3 6 30.21 1023 10 16 0.00 0.00
10:53 am 10:53 Sunny 65 18.3 47 8.3 52 52 ESE 3 6 30.17 1022 10 16 0.00 0.00
11:53 am 11:53 Sunny 68 20 46 7.8 45 45 ENE 6 9 30.16 1021 10 16 0.00 0.00
12:53 pm 12:53 Sunny 72 22.2 45 7.2 38 38 Calm 30.13 1020 10 16 0.00 0.00
1:53 pm 13:53 Sunny 72 22.2 41 5 33 33 VRB 3 6 30.12 1020 10 16 0.00 0.00
2:53 pm 14:53 Sunny 76 24.4 44 6.7 32 32 VRB 3 6 30.10 1019 10 16 0.00 0.00
3:53 pm 15:53 Sunny 75 23.9 39 3.9 27 27 Calm 30.09 1019 10 16 0.00 0.00
4:53 pm 16:53 Sunny 77 25 40 4.4 26 26 VRB 5 7 30.07 1018 10 16 0.00 0.00
5:53 pm 17:53 Sunny 73 22.8 40 4.4 30 30 VRB 7 11 30.06 1018 10 16 0.00 0.00
6:53 pm 18:53 Sunny 74 23.3 44 6.7 34 34 E 10 17 30.04 1017 10 16 0.00 0.00
7:53 pm 19:53 Sunny 71 21.7 40 4.4 32 32 E 10 17 30.04 1017 10 16 0.00 0.00
8:53 pm 20:53 Sunny 64 17.8 45 7.2 50 50 E 8 13 30.05 1018 10 16 0.00 0.00
9:53 pm 21:53 Clear 60 15.6 44 6.7 56 56 E 8 13 30.06 1018 10 16 0.00 0.00
10:53 pm 22:53 Clear 60 15.6 45 7.2 58 58 ESE 8 13 30.05 1018 10 16 0.00 0.00
11:53 pm 23:53 Clear 60 15.6 44 6.7 56 56 ESE 8 13 30.05 1018 10 16 0.00 0.00

Powered by AerisWeather